Skip Page Navigation
NASA JPL Caltech
NASA Logo - Jet Propulsion Laboratory + View the NASA Portal
+ Center for Near-Earth Object Studies
JPL Home Earth Solar System Stars & Galaxies Technology
JPL Solar System Dynamics
BODIES ORBITS EPHEMERIDES TOOLS PHYSICAL DATA DISCOVERY FAQ SITE MAP
IMPORTANT: The SSD Announcement email list is now available. Major changes are coming in the near future, including possible hostname and/or URL changes. To be notified of such changes, subscribe to this email list.

Please visit this page for more details.


JPL Small-Body Database Browser
Search: [ help ]  
390595 (2001 SL100)
Classification: Main-belt Asteroid          SPK-ID: 2390595
Ephemeris | Orbit Diagram | Orbital Elements | Mission Design | Physical Parameters | Discovery Circumstances | Close-Approach Data ]

[ show orbit diagram ]
Orbital Elements at Epoch 2458600.5 (2019-Apr-27.0) TDB
Reference: JPL 14 (heliocentric ecliptic J2000)
 Element Value Uncertainty (1-sigma)   Units 
e .1570116536074389 8.5529e-08  
a 2.315022655956499 1.3313e-08 au
q 1.951537120606084 2.0169e-07 au
i 1.927882482241083 5.5431e-06 deg
node 260.787328037521 0.00019642 deg
peri 106.1178853200722 0.00019743 deg
M 353.0475903767073 1.9641e-05 deg
tp 2458625.346438555512
(2019-May-21.84643856)
7.0294e-05 TDB
period 1286.563704476886
3.52
1.1098e-05
3.038e-08
d
yr
n .2798151376004931 2.4137e-09 deg/d
Q 2.678508191306914 1.5403e-08 au
  Orbit Determination Parameters
   # obs. used (total)      264  
   data-arc span      6651 days (18.21 yr)  
   first obs. used      2001-09-20  
   last obs. used      2019-12-06  
   planetary ephem.      DE431  
   SB-pert. ephem.      SB431-N16  
   condition code      0  
   norm. resid. RMS      .51961  
   source      ORB  
   producer      Otto Matic  
   solution date      2019-Dec-14 21:24:35  

Additional Information
 Earth MOID = .95037 au 
 Jupiter MOID = 2.78526 au 
 T_jup = 3.564 
[ show covariance matrix ]

Ephemeris | Orbit Diagram | Orbital Elements | Mission Design | Physical Parameters | Discovery Circumstances | Close-Approach Data ]

Physical Parameter Table
Parameter Symbol Value Units Sigma Reference Notes
absolute magnitude H 17.5   n/a MPO455775  

390595 (2001 SL100)          Discovered 2001-Sep-20 by LINEAR at Socorro
Reference: Last Updated: 2014-04-17

[ show close-approach data ]
Ephemeris | Orbit Diagram | Orbital Elements | Mission Design | Physical Parameters | Discovery Circumstances | Close-Approach Data ]
ABOUT SSD CREDITS/AWARDS PRIVACY/COPYRIGHT GLOSSARY LINKS
FirstGov 2020-Jan-26 06:08 UT
(server date/time)  
NASA Home Page
Site Manager:   Ryan S. Park
Webmaster  Alan B. Chamberlin